This is the latest recevied weather packets stored in our database for station/object KD2VWU. If no packets are shown the sender has not sent any weather packets the latest 1 day(s).
| Time | Temp. | Humidity | Pressure | Rain* | Wind** | Luminosity | Snow |
|---|---|---|---|---|---|---|---|
| 1778000501 | 25.56° C | 46% | 1006 hPa | 0 mm | 0.89 m/s, 267° | - | - |
| 1778000201 | 25.56° C | 47% | 1006.3 hPa | 0 mm | 1.34 m/s, 268° | - | - |
| 1777999897 | 26.11° C | 47% | 1006.4 hPa | 0 mm | 2.24 m/s, 81° | - | - |
| 1777999592 | 25.56° C | 45% | 1006.5 hPa | 0 mm | 1.34 m/s, 254° | - | - |
| 1777999290 | 25.56° C | 51% | 1006.6 hPa | 0 mm | 1.34 m/s, 263° | - | - |
| 1777998988 | 25.56° C | 45% | 1006.7 hPa | 0 mm | 1.34 m/s, 223° | - | - |
| 1777998686 | 25.56° C | 50% | 1006.6 hPa | 0 mm | 1.34 m/s, 218° | - | - |
| 1777998383 | 25.56° C | 47% | 1007 hPa | 0 mm | 0.45 m/s, 208° | - | - |
| 1777998081 | 25° C | 49% | 1006.9 hPa | 0 mm | 0.45 m/s, 170° | - | - |
| 1777997778 | 25.56° C | 48% | 1007 hPa | 0 mm | 0.89 m/s, 228° | - | - |
| 1777997475 | 24.44° C | 52% | 1007.1 hPa | 0 mm | 1.34 m/s, 243° | - | - |
| 1777997172 | 25° C | 49% | 1007.1 hPa | 0 mm | 2.68 m/s, 296° | - | - |
| 1777996870 | 24.44° C | 50% | 1007.1 hPa | 0 mm | 0.89 m/s, 231° | - | - |
| 1777996566 | 24.44° C | 50% | 1007.1 hPa | 0 mm | 0.89 m/s, 278° | - | - |
| 1777996262 | 24.44° C | 51% | 1007.3 hPa | 0 mm | 1.34 m/s, 290° | - | - |
| 1777995958 | 24.44° C | 51% | 1007.3 hPa | 0 mm | 1.79 m/s, 265° | - | - |
| 1777995654 | 24.44° C | 56% | 1007.4 hPa | 0 mm | 1.34 m/s, 136° | - | - |
| 1777995352 | 23.89° C | 51% | 1007.4 hPa | 0 mm | 1.34 m/s, 215° | - | - |
| 1777995049 | 23.89° C | 52% | 1007.4 hPa | 0 mm | 0.45 m/s, 349° | - | - |
| 1777994746 | 23.33° C | 55% | 1007.7 hPa | 0 mm | 0.45 m/s, 357° | - | - |
| 1777994442 | 23.33° C | 56% | 1007.5 hPa | 0 mm | 0.45 m/s, 206° | - | - |
| 1777994137 | 23.33° C | 55% | 1007.4 hPa | 0 mm | 1.34 m/s, 301° | - | - |
| 1777993835 | 22.78° C | 55% | 1007.5 hPa | 0 mm | 1.34 m/s, 22° | - | - |
| 1777993531 | 22.78° C | 56% | 1007.8 hPa | 0 mm | 1.79 m/s, 234° | - | - |
| 1777993227 | 22.22° C | 58% | 1007.8 hPa | 0 mm | 0.89 m/s, 227° | - | - |
* Rain latest hour (hover to see other rain measurements)
** Current wind speed in m/s (hover to see current wind gust speed)